"startDT [UTC]","vpos","CH4 [ppm]","stdev(CH4) [ppm]","CO2 [ppm]","stdev(CO2) [ppm]","H2O [ppm]","stdev(H2O)","p_LGR [torr]","T_LGR [C]","mt1_LGR [us]","mt2_LGR [us]","T_ECpre [C]","T_EC1 [C]","T_EC2 [C]","p_inlet [hPa]","p_in [hPa]","p_out [hPa]","T_inlet [C]","RH_inlet [%]","dwpt_inlet [C]","T_vent [C]","RH_vent [%]","dwpt_vent [C]","flow_vent [l min-1]","flow_inlet [l min-1]","dwpt_sample [C]","T_room [C]"
2012-08-05 00:00:00,0.0,1.9090,0.0013,384.41,0.32,25.3,26.9,138.05,31.53,24.65,36.39,0.93,-26.60,18.63,-42,554,-930,24.1,24.0,2.3,24.5,1.5,-30.8,5.73,2.35,-28.1,30.6
2012-08-05 00:01:00,0.0,1.9086,0.0012,384.26,0.38,30.6,31.4,138.05,31.54,24.65,36.39,0.93,-26.60,18.64,-42,554,-930,24.1,24.1,2.3,24.5,1.5,-30.7,5.73,2.35,-28.1,30.6
2012-08-05 00:02:00,0.0,1.9085,0.0013,384.15,0.38,25.3,28.2,138.05,31.54,24.65,36.40,0.92,-26.60,18.65,-42,554,-929,24.1,24.2,2.4,24.5,1.6,-30.6,5.73,2.32,-28.1,30.5
2012-08-05 00:03:00,0.0,1.9079,0.0012,384.33,0.33,27.5,30.1,138.05,31.53,24.65,36.39,1.01,-26.60,18.17,-42,554,-929,24.0,24.3,2.4,24.4,1.6,-30.7,5.73,2.36,-28.2,30.5
2012-08-05 00:04:00,0.0,1.9078,0.0013,384.29,0.36,24.5,30.8,138.05,31.53,24.65,36.40,1.09,-26.60,16.23,-42,554,-929,24.0,24.3,2.3,24.4,1.6,-30.6,5.73,2.34,-28.2,30.5
2012-08-05 00:05:00,0.0,1.9078,0.0014,384.38,0.33,25.1,30.8,138.05,31.53,24.65,36.39,1.04,-26.61,13.89,-42,554,-929,24.0,24.4,2.4,24.4,1.6,-30.6,5.73,2.32,-28.2,30.4
2012-08-05 00:06:00,0.0,1.9077,0.0014,384.44,0.40,22.9,31.1,138.05,31.53,24.65,36.39,1.00,-26.67,11.51,-42,554,-930,24.0,24.4,2.4,24.3,1.5,-30.8,5.73,2.36,-28.2,30.4
2012-08-05 00:07:00,0.0,1.9082,0.0012,384.27,0.32,14.3,24.2,138.05,31.53,24.65,36.39,1.01,-26.73,9.16,-42,554,-930,23.9,24.6,2.4,24.3,1.5,-30.9,5.73,2.34,-28.3,30.3
2012-08-05 00:08:00,0.0,1.9073,0.0012,384.33,0.37,26.5,31.8,138.05,31.53,24.65,36.39,0.98,-26.76,6.92,-42,554,-930,23.9,24.7,2.5,24.3,1.5,-30.9,5.73,2.32,-28.3,30.3
2012-08-05 00:09:00,0.0,1.9071,0.0015,384.28,0.34,20.0,27.0,138.05,31.53,24.65,36.39,1.08,-26.77,4.78,-42,554,-930,23.8,24.6,2.4,24.2,1.5,-30.9,5.73,2.36,-28.3,30.3
2012-08-05 00:10:00,0.0,1.9080,0.0012,384.14,0.35,18.5,23.3,138.05,31.54,24.65,36.39,1.04,-26.78,2.75,-42,553,-929,23.8,24.7,2.5,24.2,1.5,-30.9,5.73,2.35,-28.4,30.2
2012-08-05 00:11:00,0.0,1.9079,0.0015,384.23,0.40,18.1,26.2,138.05,31.54,24.65,36.40,0.97,-26.79,0.82,-42,553,-929,23.8,24.8,2.5,24.2,1.6,-30.7,5.73,2.32,-28.4,30.1
2012-08-05 00:12:00,0.0,1.9066,0.0014,384.29,0.33,18.2,26.2,138.05,31.54,24.65,36.39,1.06,-26.79,-0.99,-42,553,-929,23.8,24.9,2.5,24.2,1.6,-30.4,5.73,2.35,-28.4,30.1
2012-08-05 00:13:00,0.0,1.9070,0.0014,384.19,0.39,22.9,28.5,138.05,31.54,24.65,36.39,1.06,-26.80,-2.70,-42,553,-929,23.7,24.9,2.5,24.1,1.6,-30.4,5.73,2.36,-28.4,30.1
2012-08-05 00:14:00,0.0,1.9072,0.0014,383.98,0.39,13.9,25.3,138.05,31.55,24.65,36.41,0.97,-26.80,-3.91,-42,553,-929,23.7,25.0,2.5,24.1,1.6,-30.4,5.73,2.33,-28.5,30.1
2012-08-05 00:15:00,0.0,1.9071,0.0016,384.26,0.39,19.7,26.5,138.05,31.55,24.65,36.39,1.05,-26.81,-5.23,-42,553,-929,23.7,25.0,2.5,24.1,1.6,-30.4,5.73,2.34,-28.5,30.0
2012-08-05 00:16:00,0.0,1.9068,0.0012,384.21,0.40,14.2,21.0,138.05,31.55,24.65,36.39,1.07,-26.81,-6.54,-42,553,-929,23.7,25.0,2.4,24.1,1.6,-30.5,5.73,2.37,-28.5,30.0
2012-08-05 00:17:00,0.0,1.9075,0.0010,383.99,0.32,16.1,24.7,138.05,31.55,24.65,36.40,0.97,-26.82,-7.83,-42,553,-929,23.7,25.1,2.5,24.1,1.6,-30.4,5.73,2.35,-28.5,29.9
2012-08-05 00:18:00,0.0,1.9070,0.0012,383.99,0.33,17.4,23.3,138.05,31.55,24.65,36.39,1.00,-26.82,-9.12,-42,553,-929,23.6,25.3,2.6,24.0,1.6,-30.3,5.73,2.33,-28.5,29.9
2012-08-05 00:19:00,0.0,1.9079,0.0014,383.89,0.33,17.0,24.8,138.05,31.55,24.65,36.40,1.07,-26.83,-10.18,-42,553,-929,23.6,25.3,2.6,24.0,1.6,-30.3,5.73,2.35,-28.6,29.8
2012-08-05 00:20:00,0.0,1.9070,0.0016,384.10,0.38,16.9,24.6,138.05,31.55,24.65,36.39,1.02,-26.84,-11.33,-42,553,-929,23.6,25.4,2.6,24.0,1.6,-30.3,5.73,2.36,-28.6,29.8
2012-08-05 00:21:00,0.0,1.9071,0.0013,384.08,0.41,17.0,22.3,138.05,31.55,24.65,36.39,0.97,-26.85,-12.42,-42,553,-929,23.6,25.4,2.6,24.0,1.6,-30.3,5.73,2.34,-28.6,29.8
2012-08-05 00:22:00,0.0,1.9075,0.0011,383.94,0.30,15.8,24.7,138.05,31.55,24.65,36.40,1.04,-26.86,-13.37,-42,553,-929,23.5,25.5,2.6,23.9,1.6,-30.4,5.73,2.33,-28.6,29.8
2012-08-05 00:23:00,0.0,1.9077,0.0014,383.64,0.33,18.2,28.5,138.05,31.55,24.65,36.40,1.06,-26.87,-14.30,-42,553,-929,23.5,25.6,2.7,23.9,1.6,-30.4,5.73,2.36,-28.6,29.8
2012-08-05 00:24:00,0.0,1.9074,0.0011,383.75,0.38,19.2,28.2,138.05,31.55,24.65,36.40,0.98,-26.88,-15.11,-42,552,-929,23.5,25.8,2.8,23.9,1.6,-30.3,5.73,2.35,-28.7,29.7
2012-08-05 00:25:00,0.0,1.9071,0.0014,383.97,0.33,18.3,31.4,138.05,31.55,24.64,36.39,0.97,-26.89,-15.94,-42,552,-929,23.5,25.7,2.7,23.9,1.6,-30.4,5.73,2.33,-28.7,29.8
2012-08-05 00:26:00,0.0,1.9056,0.0013,384.24,0.33,15.6,21.9,138.05,31.55,24.65,36.38,1.03,-26.90,-16.75,-42,552,-929,23.5,25.5,2.6,23.9,1.6,-30.4,5.73,2.34,-28.7,29.8
2012-08-05 00:27:00,0.0,1.9044,0.0012,384.23,0.39,13.7,23.7,138.05,31.55,24.65,36.39,1.05,-26.91,-17.53,-42,553,-929,23.5,25.4,2.6,23.9,1.6,-30.4,5.73,2.37,-28.7,29.7
2012-08-05 00:28:00,0.0,1.9052,0.0013,384.12,0.32,14.7,25.9,138.05,31.55,24.65,36.39,0.98,-26.92,-18.26,-42,552,-929,23.5,25.4,2.5,23.9,1.6,-30.5,5.73,2.35,-28.7,29.6
2012-08-05 00:29:00,0.0,1.9053,0.0011,384.19,0.34,8.4,16.0,138.05,31.55,24.65,36.39,0.96,-26.93,-18.95,-42,552,-929,23.5,25.5,2.6,23.9,1.6,-30.6,5.73,2.34,-28.7,29.6
2012-08-05 00:30:00,0.0,1.9052,0.0013,383.96,0.38,15.3,21.8,138.05,31.55,24.65,36.40,1.01,-26.95,-19.59,-42,552,-929,23.4,25.5,2.6,23.8,1.6,-30.6,5.73,2.35,-28.7,29.6
2012-08-05 00:31:00,0.0,1.9048,0.0014,384.19,0.39,14.4,21.8,138.05,31.56,24.65,36.39,1.04,-26.96,-20.19,-42,552,-929,23.4,25.5,2.6,23.8,1.6,-30.6,5.73,2.37,-28.7,29.6
2012-08-05 00:32:00,0.0,1.9053,0.0011,384.16,0.35,20.7,28.3,138.05,31.56,24.65,36.39,1.03,-26.97,-20.76,-42,552,-929,23.4,25.5,2.5,23.8,1.6,-30.6,5.73,2.35,-28.7,29.5
2012-08-05 00:33:00,0.0,1.9047,0.0012,384.09,0.37,11.8,16.8,138.05,31.56,24.65,36.39,0.95,-26.99,-21.29,-42,552,-929,23.4,25.6,2.5,23.8,1.6,-30.6,5.73,2.34,-28.8,29.5
2012-08-05 00:34:00,0.0,1.9050,0.0012,384.03,0.32,18.2,28.8,138.05,31.56,24.65,36.39,0.99,-27.00,-21.79,-42,552,-928,23.4,25.7,2.6,23.8,1.6,-30.7,5.73,2.36,-28.8,29.5
2012-08-05 00:35:00,0.0,1.9047,0.0014,383.92,0.34,15.1,27.0,138.05,31.56,24.65,36.39,1.04,-27.00,-22.27,-42,552,-928,23.4,25.7,2.6,23.7,1.6,-30.6,5.73,2.37,-28.8,29.5
2012-08-05 00:36:00,0.0,1.9050,0.0014,384.06,0.39,10.2,18.8,138.05,31.56,24.65,36.39,1.04,-27.02,-22.71,-42,552,-928,23.4,25.7,2.6,23.7,1.6,-30.6,5.73,2.36,-28.8,29.5
2012-08-05 00:37:00,0.0,1.9044,0.0014,384.17,0.40,18.8,26.6,138.05,31.56,24.65,36.39,0.97,-27.03,-23.13,-42,552,-929,23.3,25.6,2.5,23.7,1.6,-30.7,5.73,2.34,-28.8,29.5
2012-08-05 00:38:00,0.0,1.9042,0.0012,383.93,0.33,12.9,20.7,138.05,31.56,24.65,36.40,0.96,-27.04,-23.53,-42,552,-929,23.3,25.6,2.5,23.7,1.6,-30.6,5.73,2.36,-28.8,29.4
2012-08-05 00:39:00,0.0,1.9047,0.0014,384.04,0.31,10.7,18.9,138.05,31.56,24.65,36.39,1.01,-27.06,-23.91,-42,552,-929,23.3,25.6,2.5,23.7,1.6,-30.7,5.73,2.37,-28.8,29.5
2012-08-05 00:40:00,0.0,1.9051,0.0014,383.61,0.45,14.2,22.2,138.05,31.56,24.65,36.40,1.05,-27.07,-24.25,-42,552,-929,23.3,25.7,2.6,23.7,1.6,-30.7,5.73,2.36,-28.8,29.4
2012-08-05 00:41:00,0.0,1.9051,0.0014,383.65,0.41,16.3,25.5,138.05,31.56,24.65,36.39,1.01,-27.08,-24.58,-42,552,-929,23.3,25.8,2.6,23.7,1.6,-30.7,5.73,2.34,-28.8,29.4
2012-08-05 00:42:00,0.0,1.9047,0.0014,383.65,0.34,16.1,23.3,138.05,31.56,24.65,36.39,0.95,-27.09,-24.90,-42,552,-929,23.3,25.9,2.6,23.7,1.6,-30.7,5.73,2.35,-28.8,29.4
2012-08-05 00:43:00,0.0,1.9033,0.0013,383.86,0.34,10.9,19.1,138.05,31.56,24.65,36.39,0.98,-27.10,-25.19,-41,551,-928,23.3,25.6,2.5,23.7,1.6,-30.7,5.73,2.37,-28.8,29.3
2012-08-05 00:44:00,0.0,1.9037,0.0011,383.99,0.37,15.2,24.3,138.05,31.56,24.65,36.38,1.02,-27.11,-25.47,-41,552,-928,23.3,25.4,2.4,23.7,1.6,-30.8,5.73,2.37,-28.9,29.3
2012-08-05 00:45:00,0.0,1.9039,0.0014,383.63,0.40,12.8,23.9,138.05,31.56,24.64,36.40,1.04,-27.12,-25.72,-41,551,-928,23.3,25.6,2.5,23.6,1.6,-30.7,5.73,2.35,-28.8,29.3
2012-08-05 00:46:00,0.0,1.9031,0.0015,383.98,0.35,11.7,23.6,138.05,31.56,24.65,36.39,1.00,-27.13,-25.97,-41,551,-929,23.3,25.4,2.3,23.6,1.6,-30.8,5.73,2.35,-28.9,29.4
2012-08-05 00:47:00,0.0,1.9041,0.0013,383.63,0.33,12.7,26.4,138.05,31.56,24.65,36.39,0.95,-27.14,-26.19,-42,551,-929,23.3,25.6,2.4,23.6,1.6,-30.7,5.73,2.37,-28.9,29.4
2012-08-05 00:48:00,0.0,1.9026,0.0012,384.12,0.34,12.6,21.7,138.05,31.56,24.65,36.38,0.97,-27.14,-26.40,-41,551,-929,23.3,25.4,2.4,23.6,1.6,-30.7,5.73,2.37,-28.9,29.4
2012-08-05 00:49:00,0.0,1.9019,0.0013,384.31,0.30,9.4,19.3,138.05,31.56,24.65,36.39,1.03,-27.15,-26.60,-41,551,-928,23.2,24.9,2.1,23.6,1.6,-30.7,5.73,2.35,-28.9,29.3
2012-08-05 00:50:00,0.0,1.9032,0.0015,384.07,0.39,11.4,21.4,138.05,31.56,24.65,36.39,1.04,-27.16,-26.80,-41,551,-928,23.3,25.0,2.1,23.6,1.6,-30.7,5.73,2.35,-28.9,29.3
2012-08-05 00:51:00,0.0,1.9032,0.0009,384.15,0.38,5.4,12.5,138.05,31.56,24.65,36.38,1.00,-27.17,-26.97,-41,551,-928,23.2,25.3,2.2,23.6,1.6,-30.8,5.73,2.37,-28.9,29.3
2012-08-05 00:52:00,0.0,1.9019,0.0010,384.10,0.38,10.8,16.2,138.05,31.55,24.65,36.40,0.95,-27.18,-27.14,-41,551,-929,23.2,25.2,2.2,23.6,1.6,-30.7,5.73,2.37,-28.9,29.2
2012-08-05 00:53:00,0.0,1.9020,0.0011,384.10,0.36,15.8,26.8,138.05,31.55,24.65,36.39,0.98,-27.19,-27.04,-42,551,-929,23.2,25.2,2.2,23.6,1.6,-30.7,5.73,2.36,-28.9,29.2
2012-08-05 00:54:00,0.0,1.9022,0.0012,384.18,0.40,6.1,15.5,138.05,31.55,24.65,36.38,0.99,-27.19,-26.90,-41,551,-929,23.2,25.3,2.3,23.6,1.6,-30.8,5.73,2.35,-28.9,29.2
2012-08-05 00:55:00,0.0,1.9027,0.0014,384.07,0.33,7.7,17.5,138.05,31.56,24.65,36.38,1.04,-27.20,-27.02,-41,551,-929,23.2,25.4,2.3,23.6,1.6,-30.7,5.73,2.37,-28.9,29.2
2012-08-05 00:56:00,0.0,1.9025,0.0011,383.81,0.35,10.2,18.6,138.05,31.56,24.65,36.39,1.04,-27.21,-27.16,-41,551,-929,23.2,25.6,2.4,23.6,1.6,-30.7,5.73,2.38,-28.9,29.2
2012-08-05 00:57:00,0.0,1.9012,0.0013,384.05,0.34,14.3,22.8,138.05,31.55,24.65,36.39,0.97,-27.22,-27.09,-41,551,-929,23.2,25.6,2.4,23.5,1.6,-30.8,5.73,2.37,-28.9,29.2
2012-08-05 00:58:00,0.0,1.9011,0.0013,384.17,0.40,10.2,22.7,138.05,31.55,24.65,36.39,0.99,-27.23,-26.93,-41,551,-929,23.2,25.3,2.3,23.6,1.6,-30.7,5.73,2.35,-28.9,29.2
2012-08-05 00:59:00,0.0,1.9012,0.0012,383.97,0.40,11.0,19.9,138.05,31.55,24.65,36.39,0.95,-27.22,-27.03,-41,551,-929,23.2,25.3,2.3,23.5,1.6,-30.8,5.73,2.36,-28.9,29.2
2012-08-05 01:00:00,0.0,1.9010,0.0013,384.11,0.33,11.2,22.2,138.05,31.55,24.65,36.39,0.97,-27.23,-27.17,-41,551,-928,23.2,25.4,2.3,23.5,1.6,-30.9,5.73,2.38,-28.9,29.2
2012-08-05 01:01:00,0.0,1.9011,0.0012,383.87,0.35,13.9,24.7,138.05,31.55,24.65,36.40,0.92,-27.24,-27.16,-41,551,-928,23.2,25.4,2.3,23.5,1.6,-30.9,5.73,2.37,-28.9,29.2
2012-08-05 01:02:00,0.0,1.9012,0.0012,383.91,0.38,11.7,21.4,138.05,31.55,24.65,36.40,0.86,-26.89,-26.95,-41,551,-928,23.2,25.5,2.4,23.5,1.6,-30.8,5.73,2.35,-28.9,29.2
2012-08-05 01:03:00,0.0,1.9005,0.0014,384.14,0.37,10.0,19.9,138.05,31.55,24.65,36.39,0.92,-25.29,-27.02,-41,551,-928,23.2,25.4,2.3,23.6,1.7,-30.4,5.73,2.36,-28.9,29.2
2012-08-05 01:04:00,0.0,1.9019,0.0014,383.88,0.34,10.8,16.6,138.05,31.55,24.64,36.39,0.94,-23.35,-27.10,-42,551,-928,23.2,25.7,2.4,23.5,1.8,-29.4,5.73,2.38,-28.9,29.2
2012-08-05 01:05:00,0.0,1.9014,0.0013,383.89,0.39,10.5,17.3,138.05,31.55,24.65,36.39,0.94,-21.41,-27.14,-41,551,-929,23.2,25.8,2.5,23.5,2.0,-28.8,5.73,2.37,-28.9,29.2
2012-08-05 01:06:00,0.0,1.9012,0.0014,383.95,0.36,8.8,19.0,138.05,31.55,24.65,36.39,0.88,-19.55,-27.15,-41,551,-929,23.2,25.7,2.4,23.5,2.0,-28.5,5.73,2.35,-28.9,29.2
2012-08-05 01:07:00,0.0,1.9020,0.0012,383.89,0.40,9.6,22.1,138.05,31.55,24.65,36.39,0.83,-17.76,-27.16,-41,551,-929,23.2,25.8,2.5,23.5,2.0,-28.4,5.73,2.36,-28.9,29.2
2012-08-05 01:08:00,0.0,1.9024,0.0011,383.88,0.40,14.7,25.5,138.05,31.55,24.65,36.39,0.86,-16.07,-27.15,-41,551,-928,23.2,25.9,2.5,23.5,2.0,-28.5,5.73,2.38,-28.9,29.2
2012-08-05 01:09:00,0.0,1.9014,0.0013,383.82,0.38,10.8,18.7,138.05,31.55,24.65,36.39,0.89,-14.46,-27.14,-41,551,-928,23.2,25.8,2.5,23.6,2.0,-28.5,5.73,2.36,-28.9,29.2
2012-08-05 01:10:00,0.0,1.9014,0.0012,383.80,0.36,14.0,27.4,138.05,31.55,24.65,36.39,0.90,-12.94,-27.13,-41,550,-929,23.2,25.7,2.5,23.5,2.0,-28.8,5.73,2.34,-28.8,29.2
2012-08-05 01:11:00,0.0,1.9012,0.0015,384.11,0.38,14.4,24.1,138.06,31.55,24.64,36.38,0.92,-11.50,-27.12,-41,550,-928,23.2,25.5,2.3,23.5,1.9,-28.9,5.73,2.37,-28.8,29.2
2012-08-05 01:12:00,0.0,1.9001,0.0013,383.96,0.44,11.7,21.6,138.05,31.55,24.65,36.39,0.94,-10.14,-27.10,-41,551,-928,23.2,25.3,2.2,23.5,1.9,-29.0,5.73,2.37,-28.9,29.2
2012-08-05 01:13:00,0.0,1.9004,0.0011,383.73,0.44,17.7,25.1,138.06,31.55,24.65,36.38,0.94,-8.84,-27.09,-41,550,-928,23.2,25.6,2.4,23.5,1.9,-29.1,5.73,2.35,-28.9,29.2
2012-08-05 01:14:00,0.0,1.8997,0.0013,383.93,0.49,11.6,21.3,138.05,31.55,24.66,36.39,0.90,-7.60,-27.07,-41,550,-928,23.2,25.7,2.4,23.5,1.9,-29.3,5.73,2.35,-28.9,29.2
2012-08-05 01:15:00,0.0,1.8994,0.0012,384.32,0.39,9.8,18.9,138.05,31.55,24.65,36.39,0.86,-6.42,-27.06,-41,550,-929,23.2,25.1,2.1,23.5,1.9,-29.4,5.73,2.37,-28.8,29.2
2012-08-05 01:16:00,0.0,1.9005,0.0013,384.21,0.38,15.5,23.8,138.06,31.55,24.64,36.39,0.86,-5.30,-27.05,-41,550,-928,23.2,25.3,2.2,23.5,1.8,-29.5,5.73,2.37,-28.8,29.3
2012-08-05 01:17:00,0.0,1.9001,0.0014,384.01,0.38,10.4,21.1,138.05,31.55,24.65,36.38,0.90,-4.23,-27.04,-41,550,-928,23.2,25.8,2.5,23.5,1.8,-29.6,5.73,2.34,-28.8,29.3
2012-08-05 01:18:00,0.0,1.8990,0.0014,384.19,0.32,13.6,22.9,138.05,31.55,24.65,36.39,0.92,-3.22,-27.03,-41,550,-929,23.2,25.4,2.3,23.5,1.8,-29.7,5.73,2.37,-28.8,29.3
2012-08-05 01:19:00,0.0,1.8991,0.0012,383.94,0.44,18.2,22.1,138.05,31.55,24.65,36.39,0.92,-2.27,-27.01,-41,550,-928,23.2,25.7,2.5,23.6,1.8,-29.7,5.73,2.37,-28.8,29.3
2012-08-05 01:20:00,0.0,1.8980,0.0012,384.33,0.43,14.8,24.2,138.05,31.55,24.65,36.39,0.93,-1.35,-26.99,-41,550,-928,23.2,25.5,2.4,23.6,1.8,-29.8,5.73,2.34,-28.8,29.3
2012-08-05 01:21:00,0.0,1.8984,0.0011,384.16,0.35,7.2,16.5,138.05,31.55,24.65,36.39,0.95,-0.49,-26.98,-41,550,-929,23.2,25.5,2.4,23.6,1.8,-29.9,5.73,2.35,-28.8,29.3
2012-08-05 01:22:00,0.0,1.8993,0.0015,384.08,0.35,13.3,21.6,138.05,31.55,24.65,36.39,0.94,0.33,-26.96,-41,550,-928,23.2,25.3,2.2,23.5,1.7,-30.0,5.73,2.38,-28.8,29.3
2012-08-05 01:23:00,0.0,1.8989,0.0014,384.32,0.40,10.9,22.8,138.05,31.55,24.65,36.39,0.95,1.10,-26.94,-41,550,-928,23.2,24.7,1.9,23.5,1.8,-29.9,5.73,2.35,-28.7,29.3
2012-08-05 01:24:00,0.0,1.8989,0.0013,384.16,0.38,11.7,26.0,138.05,31.54,24.65,36.39,0.95,1.83,-26.93,-41,550,-928,23.2,24.7,1.9,23.5,1.7,-30.0,5.73,2.34,-28.8,29.3
2012-08-05 01:25:00,0.0,1.8996,0.0011,383.93,0.35,20.8,30.2,138.05,31.54,24.65,36.39,0.92,2.46,-26.92,-41,550,-929,23.2,25.1,2.2,23.5,1.7,-30.0,5.73,2.37,-28.7,29.4
2012-08-05 01:26:00,0.0,1.8984,0.0013,384.16,0.39,14.4,23.5,138.05,31.54,24.65,36.39,0.93,2.82,-26.89,-41,550,-928,23.2,25.1,2.1,23.5,1.7,-30.1,5.73,2.36,-28.7,29.3
2012-08-05 01:27:00,0.0,1.8994,0.0011,383.93,0.35,13.4,25.8,138.05,31.54,24.65,36.38,0.91,2.95,-26.88,-41,550,-928,23.2,25.4,2.3,23.5,1.7,-30.1,5.73,2.34,-28.7,29.4
2012-08-05 01:28:00,0.0,1.8996,0.0011,384.00,0.32,13.9,22.6,138.05,31.54,24.64,36.38,0.91,3.21,-26.86,-41,550,-929,23.2,25.4,2.3,23.5,1.7,-30.1,5.73,2.37,-28.7,29.4
2012-08-05 01:29:00,0.0,1.8990,0.0012,384.17,0.33,18.5,22.6,138.05,31.54,24.65,36.39,0.92,3.65,-26.86,-41,550,-928,23.2,25.1,2.1,23.5,1.7,-30.2,5.73,2.35,-28.7,29.4
2012-08-05 01:30:00,0.0,1.8988,0.0012,384.04,0.36,11.6,19.7,138.05,31.54,24.64,36.38,0.91,4.16,-26.84,-41,550,-928,23.2,25.1,2.1,23.5,1.7,-30.2,5.73,2.33,-28.7,29.4
2012-08-05 01:31:00,0.0,1.8987,0.0011,383.90,0.45,11.5,19.9,138.05,31.54,24.65,36.38,0.90,4.66,-26.82,-41,550,-929,23.2,25.1,2.1,23.6,1.7,-30.2,5.73,2.36,-28.7,29.4
2012-08-05 01:32:00,0.0,1.8989,0.0012,383.90,0.44,26.0,27.9,138.05,31.54,24.65,36.39,0.91,5.14,-26.81,-41,550,-929,23.2,25.2,2.2,23.6,1.7,-30.2,5.73,2.35,-28.7,29.4
2012-08-05 01:33:00,0.0,1.8985,0.0012,383.87,0.41,19.1,25.2,138.05,31.54,24.65,36.39,0.92,5.63,-26.79,-41,550,-928,23.2,25.2,2.2,23.5,1.7,-30.3,5.73,2.33,-28.7,29.4
2012-08-05 01:34:00,0.0,1.8989,0.0014,383.66,0.37,13.5,25.4,138.05,31.54,24.65,36.39,0.92,6.11,-26.78,-41,550,-928,23.2,25.4,2.3,23.5,1.7,-30.3,5.73,2.36,-28.6,29.4
2012-08-05 01:35:00,0.0,1.8981,0.0011,383.88,0.37,15.5,25.5,138.05,31.54,24.65,36.39,0.91,6.62,-26.77,-41,550,-928,23.2,25.3,2.3,23.6,1.7,-30.2,5.73,2.36,-28.7,29.4
2012-08-05 01:36:00,0.0,1.8989,0.0012,383.71,0.38,11.3,18.3,138.05,31.54,24.65,36.40,0.93,7.10,-26.76,-41,550,-929,23.2,25.7,2.5,23.5,1.7,-30.4,5.73,2.33,-28.7,29.4
2012-08-05 01:37:00,0.0,1.8991,0.0012,384.01,0.38,16.2,20.3,138.05,31.54,24.65,36.39,0.93,7.55,-26.74,-41,550,-929,23.2,25.9,2.6,23.5,1.7,-30.2,5.73,2.35,-28.6,29.4
2012-08-05 01:38:00,0.0,1.8989,0.0012,383.64,0.35,15.9,24.2,138.05,31.54,24.65,36.40,0.94,7.96,-26.73,-41,550,-928,23.2,26.6,2.9,23.6,1.7,-30.2,5.73,2.37,-28.6,29.4
2012-08-05 01:39:00,0.0,1.8984,0.0011,383.82,0.33,10.1,20.0,138.06,31.54,24.65,36.40,0.93,8.36,-26.72,-41,550,-928,23.2,26.1,2.7,23.5,1.7,-30.3,5.73,2.33,-28.6,29.4
2012-08-05 01:40:00,0.0,1.8981,0.0010,384.11,0.37,19.1,29.2,138.06,31.53,24.65,36.39,0.93,8.74,-26.70,-41,550,-928,23.2,25.8,2.5,23.5,1.7,-30.2,5.73,2.34,-28.7,29.4
2012-08-05 01:41:00,0.0,1.8978,0.0014,383.86,0.38,11.0,20.1,138.05,31.53,24.65,36.39,0.94,9.11,-26.70,-41,550,-929,23.2,26.0,2.6,23.5,1.7,-30.3,5.73,2.36,-28.6,29.4
2012-08-05 01:42:00,0.0,1.8980,0.0014,383.99,0.33,15.0,23.7,138.06,31.53,24.65,36.39,0.94,9.47,-26.69,-41,550,-929,23.2,25.9,2.6,23.5,1.7,-30.5,5.73,2.33,-28.6,29.4
2012-08-05 01:43:00,0.0,1.8984,0.0013,383.50,0.34,18.9,31.4,138.05,31.53,24.65,36.40,0.94,9.81,-26.67,-41,550,-929,23.2,26.5,2.9,23.5,1.7,-30.3,5.73,2.34,-28.6,29.4
2012-08-05 01:44:00,0.0,1.8980,0.0012,383.75,0.36,15.8,23.3,138.06,31.53,24.65,36.39,0.94,10.15,-26.66,-41,550,-928,23.2,26.5,2.9,23.5,1.7,-30.2,5.73,2.37,-28.6,29.4
2012-08-05 01:45:00,0.0,1.8979,0.0014,383.99,0.28,21.1,30.8,138.05,31.53,24.65,36.38,0.93,10.47,-26.65,-41,550,-928,23.2,26.2,2.7,23.5,1.7,-30.3,5.73,2.33,-28.6,29.4
2012-08-05 01:46:00,0.0,1.8979,0.0012,384.00,0.43,14.1,24.4,138.05,31.53,24.65,36.39,0.93,10.78,-26.64,-41,550,-928,23.2,26.1,2.7,23.6,1.7,-30.3,5.73,2.33,-28.6,29.4
2012-08-05 01:47:00,0.0,1.8981,0.0012,383.74,0.54,16.4,26.4,138.05,31.53,24.65,36.39,0.92,11.08,-26.63,-41,550,-929,23.2,26.1,2.7,23.6,1.7,-30.3,5.73,2.37,-28.6,29.4
2012-08-05 01:48:00,0.0,1.8985,0.0012,383.82,0.37,9.2,17.0,138.05,31.52,24.65,36.38,0.92,11.37,-26.62,-41,550,-929,23.2,26.2,2.7,23.5,1.7,-30.3,5.73,2.33,-28.6,29.4
2012-08-05 01:49:00,0.0,1.8981,0.0011,384.03,0.36,14.8,20.0,138.05,31.52,24.65,36.39,0.90,11.65,-26.61,-41,550,-928,23.2,25.3,2.3,23.5,1.7,-30.3,5.73,2.34,-28.6,29.4
2012-08-05 01:50:00,0.0,1.8980,0.0011,383.95,0.38,12.8,22.8,138.06,31.52,24.65,36.38,0.92,11.92,-26.59,-41,550,-928,23.2,25.6,2.4,23.5,1.7,-30.2,5.73,2.36,-28.6,29.4
2012-08-05 01:51:00,0.0,1.8991,0.0010,383.42,0.40,19.5,25.7,138.06,31.52,24.64,36.39,0.91,12.18,-26.58,-41,550,-928,23.2,26.5,2.9,23.5,1.7,-30.2,5.73,2.34,-28.6,29.4
2012-08-05 01:52:00,0.0,1.8987,0.0010,383.61,0.32,17.2,28.3,138.06,31.52,24.65,36.39,0.92,12.43,-26.58,-41,550,-928,23.2,26.1,2.7,23.5,1.7,-30.3,5.73,2.34,-28.6,29.4
2012-08-05 01:53:00,0.0,1.8986,0.0013,383.75,0.31,19.3,27.6,138.05,31.52,24.65,36.40,0.91,12.67,-26.57,-41,550,-928,23.2,25.4,2.3,23.5,1.7,-30.3,5.73,2.36,-28.6,29.4
2012-08-05 01:54:00,0.0,1.8987,0.0012,383.95,0.34,19.2,27.6,138.05,31.52,24.65,36.39,0.92,12.90,-26.56,-41,550,-929,23.2,25.1,2.1,23.6,1.7,-30.3,5.73,2.34,-28.6,29.4
2012-08-05 01:55:00,0.0,1.8993,0.0014,383.91,0.32,14.0,23.6,138.05,31.52,24.64,36.39,0.93,13.12,-26.55,-41,550,-929,23.2,25.0,2.1,23.6,1.7,-30.3,5.73,2.33,-28.6,29.5
2012-08-05 01:56:00,0.0,1.8994,0.0011,383.82,0.27,14.5,21.6,138.05,31.52,24.65,36.39,0.92,13.34,-26.55,-41,550,-928,23.2,25.3,2.3,23.6,1.7,-30.3,5.73,2.37,-28.5,29.5
2012-08-05 01:57:00,0.0,1.8996,0.0012,383.66,0.40,18.2,26.1,138.05,31.52,24.65,36.39,0.93,13.54,-26.53,-41,550,-928,23.2,25.3,2.3,23.6,1.7,-30.4,5.73,2.33,-28.5,29.5
2012-08-05 01:58:00,0.0,1.8991,0.0011,383.90,0.38,17.0,22.2,138.05,31.52,24.65,36.39,0.92,13.74,-26.52,-41,550,-929,23.3,24.8,2.0,23.6,1.7,-30.4,5.73,2.34,-28.5,29.5
2012-08-05 01:59:00,0.0,1.8993,0.0013,383.91,0.41,15.2,28.4,138.05,31.52,24.65,36.39,0.92,13.93,-26.52,-41,550,-929,23.2,24.8,2.0,23.6,1.7,-30.5,5.73,2.36,-28.5,29.5
2012-08-05 02:00:00,0.0,1.9001,0.0015,383.92,0.41,19.1,25.1,138.05,31.52,24.65,36.39,0.92,14.10,-26.51,-41,550,-929,23.3,24.9,2.1,23.6,1.7,-30.4,5.73,2.33,-28.5,29.5
2012-08-05 02:01:00,0.0,1.9010,0.0014,383.97,0.36,18.6,27.2,138.05,31.52,24.64,36.39,0.93,14.28,-26.50,-41,550,-928,23.3,24.9,2.1,23.5,1.7,-30.4,5.73,2.33,-28.5,29.5
2012-08-05 02:02:00,0.0,1.9011,0.0014,383.83,0.40,18.2,27.1,138.05,31.52,24.65,36.38,0.93,14.44,-26.49,-41,550,-928,23.3,25.5,2.4,23.6,1.7,-30.4,5.73,2.36,-28.5,29.5
2012-08-05 02:03:00,0.0,1.9014,0.0015,383.48,0.38,13.1,19.4,138.05,31.52,24.65,36.39,0.93,14.60,-26.49,-41,550,-928,23.3,26.0,2.7,23.6,1.7,-30.3,5.73,2.33,-28.5,29.5
2012-08-05 02:04:00,0.0,1.9006,0.0011,383.77,0.33,21.4,24.6,138.06,31.52,24.65,36.38,0.94,14.75,-26.48,-41,550,-928,23.2,25.4,2.3,23.6,1.7,-30.3,5.73,2.33,-28.5,29.4
2012-08-05 02:05:00,0.0,1.9004,0.0012,383.57,0.37,18.3,25.7,138.05,31.52,24.65,36.39,0.93,14.89,-26.47,-41,550,-928,23.2,25.4,2.3,23.6,1.7,-30.4,5.73,2.37,-28.5,29.4
2012-08-05 02:06:00,0.0,1.9002,0.0012,383.63,0.40,14.9,23.6,138.06,31.52,24.65,36.39,0.94,15.03,-26.47,-41,550,-929,23.2,25.4,2.3,23.6,1.7,-30.4,5.73,2.34,-28.5,29.5
2012-08-05 02:07:00,0.0,1.9005,0.0010,383.65,0.36,16.9,23.4,138.05,31.52,24.65,36.38,0.93,15.16,-26.46,-41,550,-929,23.2,25.3,2.3,23.6,1.7,-30.4,5.73,2.33,-28.5,29.5
2012-08-05 02:08:00,0.0,1.9003,0.0010,383.62,0.39,19.8,27.4,138.05,31.52,24.65,36.38,0.94,15.29,-26.45,-41,550,-929,23.3,25.5,2.4,23.6,1.7,-30.4,5.73,2.36,-28.5,29.5
2012-08-05 02:09:00,0.0,1.9009,0.0012,383.42,0.41,24.1,30.4,138.05,31.52,24.65,36.39,0.94,15.41,-26.45,-41,550,-928,23.3,25.7,2.5,23.6,1.7,-30.4,5.73,2.33,-28.4,29.6
2012-08-05 02:10:00,0.0,1.9008,0.0012,383.41,0.36,19.3,28.6,138.05,31.52,24.65,36.38,0.94,15.53,-26.44,-41,551,-928,23.2,25.9,2.6,23.6,1.7,-30.4,5.73,2.33,-28.4,29.5
2012-08-05 02:11:00,0.0,1.9014,0.0014,383.51,0.37,18.4,23.5,138.05,31.52,24.65,36.39,0.94,15.64,-26.43,-41,551,-928,23.3,25.7,2.5,23.6,1.7,-30.4,5.73,2.36,-28.4,29.6
2012-08-05 02:12:00,0.0,1.9012,0.0014,383.69,0.29,19.3,28.5,138.05,31.52,24.65,36.39,0.94,15.74,-26.42,-41,550,-929,23.3,25.4,2.3,23.6,1.7,-30.4,5.73,2.33,-28.5,29.5
2012-08-05 02:13:00,0.0,1.9021,0.0012,383.47,0.44,19.0,22.1,138.05,31.52,24.64,36.38,0.94,15.85,-26.42,-41,550,-929,23.3,25.6,2.5,23.6,1.7,-30.4,5.73,2.33,-28.4,29.5
2012-08-05 02:14:00,0.0,1.9020,0.0012,383.70,0.34,15.4,23.5,138.05,31.52,24.65,36.39,0.94,15.94,-26.41,-41,551,-929,23.3,25.3,2.3,23.6,1.7,-30.4,5.73,2.36,-28.4,29.6
2012-08-05 02:15:00,0.0,1.9019,0.0015,383.55,0.41,25.4,27.4,138.05,31.52,24.65,36.39,0.94,16.03,-26.41,-41,551,-928,23.3,25.4,2.3,23.6,1.7,-30.4,5.73,2.33,-28.4,29.6
2012-08-05 02:16:00,0.0,1.9025,0.0013,383.54,0.39,19.9,27.5,138.05,31.52,24.65,36.39,0.94,16.12,-26.41,-41,551,-928,23.3,25.2,2.3,23.6,1.7,-30.4,5.73,2.33,-28.4,29.6
2012-08-05 02:17:00,0.0,1.9027,0.0013,383.41,0.42,13.5,20.3,138.05,31.52,24.65,36.39,0.93,16.21,-26.40,-41,551,-928,23.3,25.2,2.3,23.6,1.7,-30.4,5.73,2.36,-28.4,29.6
2012-08-05 02:18:00,0.0,1.9028,0.0012,383.26,0.35,17.4,25.6,138.05,31.52,24.65,36.39,0.94,16.30,-26.39,-41,551,-929,23.3,25.4,2.4,23.6,1.7,-30.4,5.73,2.33,-28.4,29.5
2012-08-05 02:19:00,0.0,1.9031,0.0013,383.37,0.44,27.3,33.8,138.05,31.52,24.65,36.38,0.94,16.37,-26.39,-41,551,-929,23.3,25.4,2.4,23.6,1.7,-30.4,5.73,2.33,-28.5,29.6
2012-08-05 02:20:00,0.0,1.9038,0.0014,383.80,0.35,18.4,29.3,138.05,31.52,24.65,36.39,0.94,16.45,-26.38,-41,551,-929,23.3,25.2,2.2,23.6,1.7,-30.4,5.73,2.36,-28.5,29.6